FREGAT DEB, 45820

Orbit data source: Space-Track

FREGAT DEB, 45820 is space debris in LEO originally from a launch on Mon, 18 Jul 2011 UTC launched from the Tyuratam Missile And Space Complex (TTMTR). Debris objects in space refer to the collection of defunct objects orbiting the Earth. Examples of debris include non-operational satellites, rocket bodies, and fragments generated from explosions, collisions, or faulty payload assembly.

Loading next visibility...
Identifier
45820, 2011-037BE
Orbit
LEO
Country
Flag of CISCIS
Related business
Manufacturer
Lavochkin
Mission
Spacecraft
Bus & Motor
Unknown
Mass
Unknown
Launch date (UTC)
2011-07-18 (15 years ago)
Launch vehicle
Unknown
Launch site
Tyuratam Missile And Space Complex (TTMTR)
Object type
Payload
Rocket body
Debris
Shape & HBR
Unknown shape, 0.1 m
Radar Cross Section
Medium (>0.1 m² and <1 m²)

Expand to show TLE details & history
Last TLE update: 3 days ago

TLE from 3 days ago
0 FREGAT DEB
1 45820U 11037BE  26170.79533830  .00007752  00000-0  45925-2 0  9993
2 45820  51.5266  35.5694 1497307  30.7243 337.3195 11.77185938253818
Epoch: 2026-06-19T19:05Z
TLE epoch observation values (Epoch: 2026-06-19T19:05:17.229Z)
Latitude
0.00003°
Longitude
-158.77155°
Altitude
691.502 km
Speed
7.998 km/s
True Right ascension
02h 22m 16s
True Declination
0° 00' 00"
Sunlit
Object was in daylight at epoch
Visualization orbit readout
Latitude
Unknown
Longitude
Unknown
Altitude
Unknown
Speed
Unknown
Apparent Right ascension
Unknown
Apparent Declination
Unknown
Sunlit
N/A
Visualization observer readout
Local Sidereal Time
21:38:49
Azimuth
Unknown
Elevation
Unknown
Doppler factor
Unknown
Orbital elements
Apogee altitude
3,007.393 km
Perigee altitude
562.817 km
Semi-major axis
8,163.242 km
Eccentricity
0.14973
Inclination
51.5266°
RAAN
35.5694°
Arg. of periapsis
30.7243°
True anomaly
329.36298°
Mean anomaly
337.3195°
Eccentric anomaly
333.4903°
Mean motion
2.94272 °/min
Orbital period
122.34 mins
BSTAR
0.0045925
Loading maneuver chart data...
Computing Atmospheric mass density...
Loading historical data...
Loading historical data...
Loading historical data...
Loading historical data...
Loading historical data...
Loading historical data...
Loading historical data...

Documentation

Showing up to 5 results
|